Weather History for Petersburg, WV

Change the Weather History Date:

Thursday, March 21, 2013

  Actual Average (KEKN) Record (KEKN)
Temperature  
Mean Temperature 30 °F 41 °F  
Max Temperature 33 °F 53 °F 80 °F (2012)
Min Temperature 27 °F 29 °F -3 °F (1965)
Degree Days  
Heating Degree Days 35 24  
Month to date heating degree days 563  
Since 1 July heating degree days 4884  
Cooling Degree Days 0 0  
Month to date cooling degree days 0  
Year to date cooling degree days 0  
Moisture  
Dew Point 12 °F    
Average Humidity 49    
Maximum Humidity 70    
Minimum Humidity 38    
Precipitation  
Precipitation 0.00 in 0.13 in 1.35 in (1962)
Month to date precipitation 2.64  
Year to date precipitation 8.97  
Snow  
Snow 0.00 in - - ()
Month to date snowfall  
Since 1 September snowfall  
Snow Depth -    
Sea Level Pressure  
Sea Level Pressure 29.86 in    
Wind  
Wind Speed 8 mph (WNW)    
Max Wind Speed 20 mph    
Max Gust Speed 31 mph    
Visibility 10 miles    
Events      
T = Trace of Precipitation, MM = Missing Value Source: NWS Daily Summary

Daily Weather History Graph

Daily Weather History Graph

Search for Another Location

Airport:

Trip Planner

Search our weather history database for the weather conditions in past years. The results will help you decide how hot, cold, wet, or windy it might be!

Date:

Astronomy

Mar. 21, 2013 Rise Set
Actual Time 7:18 AM EDT 7:29 PM EDT
Civil Twilight 6:51 AM EDT 7:56 PM EDT
Nautical Twilight 6:20 AM EDT 8:27 PM EDT
Astronomical Twilight 5:48 AM EDT 8:59 PM EDT
Moon 2:00 PM EDT (3/21) 3:36 AM EDT (3/21)
Length of Visible Light 13h 04m
Length of Day
12h 11m
Waxing Gibbous, 68% of the Moon is Illuminated
Mar 21
Waxing Gibbous
Mar 27
Full
Apr 3
Last Quarter
Apr 10
New
Apr 18
First Quarter

Hourly Weather History & Observations

Time (EDT) Temp. Windchill Dew Point Humidity Pressure Visibility Wind Dir Wind Speed Gust Speed Precip Events Conditions
12:15 AM 33.3 °F 28.9 °F 22.1 °F 64% 29.86 in 10.0 mi North 4.6 mph - N/A   Overcast
12:55 AM 32.7 °F 27.3 °F 22.1 °F 65% 29.85 in 10.0 mi North 5.8 mph - N/A   Mostly Cloudy
1:15 AM 32.7 °F 23.4 °F 21.9 °F 64% 29.85 in 10.0 mi NNW 12.7 mph - N/A   Mostly Cloudy
1:35 AM 32.9 °F 25.9 °F 19.6 °F 58% 29.85 in 10.0 mi NNW 8.1 mph 18.4 mph N/A   Overcast
1:55 AM 31.8 °F 25.4 °F 19.0 °F 59% 29.84 in 10.0 mi NNW 6.9 mph - N/A   Scattered Clouds
2:15 AM 32.0 °F 24.2 °F 17.8 °F 56% 29.85 in 10.0 mi NW 9.2 mph - N/A   Scattered Clouds
2:35 AM 31.8 °F 25.4 °F 17.6 °F 56% 29.84 in 10.0 mi NW 6.9 mph - N/A   Overcast
2:55 AM 31.1 °F 27.7 °F 18.1 °F 59% 29.85 in 10.0 mi NNE 3.5 mph - N/A   Mostly Cloudy
3:15 AM 30.7 °F - 18.1 °F 60% 29.84 in 10.0 mi Calm Calm - N/A   Scattered Clouds
3:35 AM 28.9 °F 25.2 °F 18.5 °F 65% 29.83 in 10.0 mi North 3.5 mph - N/A   Scattered Clouds
3:55 AM 29.5 °F 25.9 °F 18.5 °F 64% 29.83 in 10.0 mi North 3.5 mph - N/A   Mostly Cloudy
4:15 AM 29.1 °F - 18.0 °F 63% 29.82 in 10.0 mi Calm Calm - N/A   Scattered Clouds
4:35 AM 27.1 °F - 16.2 °F 63% 29.81 in 10.0 mi Calm Calm - N/A   Clear
4:55 AM 28.0 °F 21.7 °F 17.4 °F 64% 29.82 in 10.0 mi NNW 5.8 mph - N/A   Mostly Cloudy
5:15 AM 27.5 °F 23.6 °F 17.2 °F 65% 29.81 in 10.0 mi West 3.5 mph - N/A   Scattered Clouds
5:35 AM 27.1 °F 23.2 °F 18.7 °F 70% 29.82 in 10.0 mi NNW 3.5 mph - N/A   Mostly Cloudy
5:55 AM 27.1 °F 20.7 °F 16.7 °F 65% 29.83 in 10.0 mi WNW 5.8 mph - N/A   Mostly Cloudy
6:15 AM 27.3 °F 20.9 °F 15.3 °F 61% 29.83 in 10.0 mi WNW 5.8 mph - N/A   Mostly Cloudy
6:35 AM 27.9 °F 22.6 °F 14.9 °F 58% 29.84 in 10.0 mi NW 4.6 mph - N/A   Overcast
6:55 AM 28.0 °F 20.8 °F 14.5 °F 57% 29.84 in 10.0 mi NNW 6.9 mph - N/A   Overcast
7:15 AM 27.3 °F 19.1 °F 12.6 °F 54% 29.84 in 10.0 mi West 8.1 mph - N/A   Mostly Cloudy
7:35 AM 27.1 °F 18.2 °F 12.4 °F 54% 29.84 in 10.0 mi West 9.2 mph - N/A   Mostly Cloudy
7:55 AM 27.3 °F 18.4 °F 10.9 °F 50% 29.84 in 10.0 mi WNW 9.2 mph 18.4 mph N/A   Scattered Clouds
8:15 AM 28.0 °F 16.1 °F 10.8 °F 48% 29.84 in 10.0 mi WNW 16.1 mph 25.3 mph N/A   Scattered Clouds
8:35 AM 27.9 °F 17.8 °F 11.3 °F 50% 29.84 in 10.0 mi WNW 11.5 mph - N/A   Clear
8:55 AM 27.9 °F 16.8 °F 12.0 °F 52% 29.84 in 10.0 mi NW 13.8 mph - N/A   Scattered Clouds
9:15 AM 27.5 °F 18.6 °F 10.9 °F 50% 29.85 in 10.0 mi NW 9.2 mph 17.3 mph N/A   Mostly Cloudy
9:35 AM 28.0 °F 18.6 °F 10.6 °F 48% 29.85 in 10.0 mi WNW 10.4 mph - N/A   Mostly Cloudy
9:55 AM 28.9 °F 20.4 °F 10.0 °F 45% 29.85 in 10.0 mi WNW 9.2 mph 17.3 mph N/A   Mostly Cloudy
10:15 AM 28.2 °F 20.2 °F 9.1 °F 45% 29.85 in 10.0 mi NW 8.1 mph - N/A   Overcast
10:35 AM 28.8 °F 17.0 °F 9.7 °F 45% 29.85 in 10.0 mi West 16.1 mph 20.7 mph N/A   Mostly Cloudy
10:55 AM 29.8 °F 20.9 °F 9.5 °F 43% 29.85 in 10.0 mi NW 10.4 mph - N/A   Mostly Cloudy
11:15 AM 28.2 °F 20.2 °F 7.7 °F 42% 29.85 in 10.0 mi WNW 8.1 mph 18.4 mph N/A   Mostly Cloudy
11:35 AM 28.6 °F 18.2 °F 7.9 °F 42% 29.85 in 10.0 mi West 12.7 mph 21.9 mph N/A   Mostly Cloudy
11:55 AM 28.2 °F 18.3 °F 7.2 °F 41% 29.85 in 10.0 mi West 11.5 mph 20.7 mph N/A   Overcast
12:15 PM 27.9 °F 16.3 °F 9.5 °F 46% 29.85 in 10.0 mi NW 15.0 mph 20.7 mph N/A   Overcast
12:35 PM 29.8 °F 19.3 °F 7.9 °F 40% 29.85 in 10.0 mi West 13.8 mph 20.7 mph N/A   Overcast
12:55 PM 28.2 °F 17.7 °F 9.3 °F 45% 29.85 in 10.0 mi WNW 12.7 mph 20.7 mph N/A   Overcast
1:15 PM 28.9 °F 20.4 °F 8.8 °F 43% 29.84 in 10.0 mi WNW 9.2 mph 20.7 mph N/A   Mostly Cloudy
1:35 PM 30.0 °F 21.1 °F 9.5 °F 42% 29.85 in 10.0 mi WNW 10.4 mph 20.7 mph N/A   Mostly Cloudy
1:55 PM 30.0 °F 19.1 °F 9.3 °F 42% 29.84 in 10.0 mi WNW 15.0 mph 19.6 mph N/A   Mostly Cloudy
2:15 PM 31.3 °F 21.1 °F 11.3 °F 44% 29.84 in 10.0 mi WNW 13.8 mph 18.4 mph N/A   Mostly Cloudy
2:35 PM 32.4 °F 22.5 °F 12.9 °F 45% 29.84 in 10.0 mi WNW 13.8 mph - N/A   Mostly Cloudy
2:55 PM 32.0 °F 22.5 °F 10.4 °F 41% 29.83 in 10.0 mi NW 12.7 mph 18.4 mph N/A   Overcast
3:15 PM 30.9 °F 18.7 °F 10.9 °F 43% 29.83 in 10.0 mi West 19.6 mph 26.5 mph N/A   Overcast
3:35 PM 32.5 °F 23.7 °F 10.6 °F 40% 29.83 in 10.0 mi WSW 11.5 mph 17.3 mph N/A   Overcast
3:55 PM 33.3 °F 25.1 °F 11.1 °F 40% 29.83 in 10.0 mi West 10.4 mph 13.8 mph N/A   Scattered Clouds
4:15 PM 32.0 °F 23.0 °F 10.0 °F 40% 29.83 in 10.0 mi WNW 11.5 mph 23.0 mph N/A   Scattered Clouds
4:35 PM 32.2 °F 20.7 °F 10.4 °F 40% 29.84 in 10.0 mi West 18.4 mph 31.1 mph N/A   Scattered Clouds
4:55 PM 31.6 °F 20.7 °F 9.7 °F 40% 29.84 in 10.0 mi WNW 16.1 mph 26.5 mph N/A   Scattered Clouds
5:15 PM 32.4 °F 20.6 °F 10.6 °F 40% 29.85 in 10.0 mi West 19.6 mph 28.8 mph N/A   Mostly Cloudy
5:35 PM 32.0 °F 20.5 °F 9.7 °F 39% 29.85 in 10.0 mi WNW 18.4 mph 28.8 mph N/A   Mostly Cloudy
5:55 PM 32.0 °F 21.6 °F 10.9 °F 42% 29.85 in 10.0 mi WNW 15.0 mph 20.7 mph N/A   Scattered Clouds
6:15 PM 31.5 °F 20.9 °F 8.6 °F 38% 29.86 in 10.0 mi West 15.0 mph 26.5 mph N/A   Scattered Clouds
6:35 PM 31.5 °F 21.8 °F 9.7 °F 40% 29.87 in 10.0 mi WNW 12.7 mph 21.9 mph N/A   Scattered Clouds
6:55 PM 30.7 °F 19.2 °F 8.6 °F 40% 29.87 in 10.0 mi WNW 17.3 mph 25.3 mph N/A   Scattered Clouds
7:15 PM 29.8 °F 19.3 °F 9.0 °F 42% 29.88 in 10.0 mi WNW 13.8 mph 20.7 mph N/A   Clear
7:35 PM 29.3 °F 23.2 °F 10.2 °F 45% 29.89 in 10.0 mi WSW 5.8 mph - N/A   Clear
7:55 PM 28.9 °F 23.9 °F 9.5 °F 44% 29.89 in 10.0 mi West 4.6 mph - N/A   Clear
8:15 PM 29.5 °F - 8.4 °F 41% 29.89 in 10.0 mi Calm Calm - N/A   Scattered Clouds
8:35 PM 28.4 °F - 9.7 °F 46% 29.91 in 10.0 mi Calm Calm - N/A   Scattered Clouds
8:55 PM 29.3 °F 20.2 °F 9.0 °F 43% 29.91 in 10.0 mi NW 10.4 mph 17.3 mph N/A   Scattered Clouds
9:15 PM 28.8 °F - 9.1 °F 44% 29.92 in 10.0 mi Calm Calm - N/A   Scattered Clouds
9:35 PM 28.8 °F - 9.1 °F 44% 29.92 in 10.0 mi Calm Calm - N/A   Clear
9:55 PM 28.8 °F 20.2 °F 9.5 °F 45% 29.92 in 10.0 mi West 9.2 mph - N/A   Clear
10:15 PM 29.1 °F 21.3 °F 9.9 °F 45% 29.92 in 10.0 mi West 8.1 mph - N/A   Clear
10:35 PM 27.7 °F 20.4 °F 10.8 °F 49% 29.92 in 10.0 mi West 6.9 mph - N/A   Clear
10:55 PM 28.8 °F 22.6 °F 10.0 °F 46% 29.93 in 10.0 mi West 5.8 mph - N/A   Clear
11:15 PM 29.3 °F 22.3 °F 10.4 °F 45% 29.93 in 10.0 mi WSW 6.9 mph - N/A   Clear
11:35 PM 29.3 °F 21.5 °F 11.3 °F 47% 29.94 in 10.0 mi West 8.1 mph - N/A   Clear